Regional Weather Roundup
Issued by NWS

Home | Current Version | Previous Version | Graphics & Text | Print | Product List | Glossary On
Versions: 1 2 3 4 5 6 7 8 9 10 11 12 13 14 15 16 17 18 19 20 21 22 23 24 25 26 27 28 29 30 31 32 33 34 35 36 37 38 39 40 41 42 43 44 45 46 47 48 49 50
000
ASUS43 KLSX 220707
RWRMO

WEATHER SUMMARY FOR MISSOURI
NATIONAL WEATHER SERVICE SPRINGFIELD MO
200 AM CDT SUN APR 22 2018

NOTE: "FAIR" INDICATES FEW OR NO CLOUDS BELOW 12,000 FEET WITH NO
       SIGNIFICANT WEATHER AND/OR OBSTRUCTIONS TO VISIBILITY.
       CURRENT SKY AND/OR WEATHER CONDITIONS ARE NOT AVAILABLE FOR
       CHILLICOTHE AND FARMINGTON.

MOZ001>031-035>038-043-044-053-054-220800-
...NORTHERN AND WESTERN MISSOURI...

CITY           SKY/WX    TMP DP  RH WIND       PRES   REMARKS
KANSAS CTY INT CLOUDY    53  30  41 NE12      30.13S
KANSAS C DTWN  CLOUDY    56  29  35 N9        30.11F
LEE`S SUMMIT   CLOUDY    54  31  41 E8        30.11F
ST JOSEPH      CLOUDY    54  30  40 E13       30.16S
CHILLICOTHE      N/A     54  30  40 NE7       30.19R
KIRKSVILLE     CLOUDY    52  31  44 NE12      30.20S

$$
MOZ066>068-077>081-088>096-101>105-220800-
...SOUTHWEST MISSOURI...

CITY           SKY/WX    TMP DP  RH WIND       PRES   REMARKS
SPRINGFIELD    CLOUDY    55  47  74 NE8       30.00F
JOPLIN         LGT RAIN  52  51  97 NE7       30.02F
BRANSON        CLOUDY    54  46  76 E8        30.00F

$$
MOZ032>034-039>042-045>050-055>058-069>072-220800-
...CENTRAL MISSOURI...

CITY           SKY/WX    TMP DP  RH WIND       PRES   REMARKS
COLUMBIA       CLOUDY    56  32  40 E9        30.14R
JEFFERSON CITY CLOUDY    59  33  37 NE12      30.12F
ROLLA          CLOUDY    56  33  42 E12       30.10F
SEDALIA        LGT RAIN  56  39  53 NE7       30.12F
WHITEMAN AFB   CLOUDY    54  35  47 NE6       30.07S
WARRENSBURG    CLOUDY    54  32  43 NE8       30.11S
OSAGE BEACH    CLOUDY    58  37  45 NE12      30.08F

$$
MOZ051-052-059>065-220800-
...EAST CENTRAL MISSOURI...

CITY           SKY/WX    TMP DP  RH WIND       PRES   REMARKS
ST LOUIS INTL  CLOUDY    56  33  42 E15       30.16F
SPIRIT OF STL  CLOUDY    56  35  45 E8        30.15F
ST CHARLES     CLOUDY    56  33  42 E13       30.16F

$$
MOZ072>076-082>087-097>100-106>115-220800-
...SOUTH CENTRAL AND SOUTHEAST MISSOURI...

CITY           SKY/WX    TMP DP  RH WIND       PRES   REMARKS
CAPE GIRARDEAU CLOUDY    61  42  49 SE13      30.12F
FARMINGTON     CLOUDY    57  37  47 CALM      30.13S
POPLAR BLUFF   LGT RAIN  59  48  67 E6        30.10F
WEST PLAINS    LGT RAIN  58  44  60 E13       30.05F

$$




USA.gov is the U.S. government's official web portal to all federal, state and local government web resources and services.